User: anonymous   Login
Location: Acheville
(50.3840°N, 2.8827°E)
Time: 10:26:09
(UTC+00:00)
Language:

Cosmos 1626 Rocket - Orbit

View from above orbital plane
View from above orbital plane
View from above satellite
View from above satellite

Ground track
Ground track

The orbit data is extracted from the following two-line orbital elements,

1 15495U 85009B   22017.83948641  .00000217  00000-0  23098-4 0  9997
2 15495  82.5226  57.6404 0019598 197.1141 162.9416 14.83951663998453
Epoch (UTC): 17 January 2022 20:08:51
Eccentricity: 0.0019598
inclination: 82.5226°
perigee height: 603 km
apogee height: 630 km
right ascension of ascending node: 57.6404°
argument of perigee: 197.1141°
revolutions per day: 14.83951663
mean anomaly at epoch: 162.9416°
orbit number at epoch: 99845

The dashed part of the orbit path shows where the satellite is in the earth's shadow,  

DLR